QPF
0.04 0.04 0.04 0.04 0.04 0.03 0.03 0.03 0.02 0.02 0.02 0.02 0.02 0.02 0.02 0.02 0.01 0.01 0.01 0.00 0.00 0.00 0.00 0.00 0.00 0.00 0.00 0.00 0.00 0.00 0.00 0.00 0.00 0.00 0.00 0.00 0.00 0.00 0.00 0.00 0.01 0.01 0.01
0.05 0.04 0.03 0.03 0.03 0.02 0.02 0.02 0.02 0.02 0.01 0.01 0.01 0.00 0.00 0.00 0.00 0.00 0.00 0.00 0.00 0.00 0.00 0.00 0.00 0.00 0.00 0.00 0.00 0.00 0.00 0.00 0.00 0.00 0.00 0.00 0.00 0.00 0.00 0.00 0.00 0.00 0.01
0.07 0.06 0.04 0.03 0.03 0.02 0.02 0.02 0.02 0.02 0.01 0.01 0.00 0.00 0.00 0.00 0.00 0.00 0.00 0.00 0.00 0.00 0.00 0.00 0.00 0.00 0.00 0.00 0.00 0.00 0.00 0.00 0.00 0.00 0.00 0.00 0.00 0.00 0.00 0.00 0.00 0.01 0.00
0.06 0.05 0.04 0.04 0.03 0.03 0.02 0.02 0.02 0.02 0.01 0.01 0.00 0.00 0.00 0.00 0.00 0.00 0.00 0.00 0.00 0.00 0.00 0.00 0.00 0.00 0.00 0.00 0.00 0.00 0.00 0.01 0.00 0.00 0.00 0.00 0.01 0.01 0.01 0.01 0.01 0.02 0.01
0.05 0.04 0.04 0.05 0.05 0.04 0.04 0.04 0.03 0.02 0.01 0.01 0.01 0.01 0.01 0.00 0.00 0.00 0.00 0.00 0.00 0.00 0.00 0.00 0.00 0.00 0.00 0.00 0.00 0.00 0.00 0.00 0.01 0.01 0.01 0.02 0.02 0.03 0.02 0.01 0.02 0.02 0.03
0.03 0.03 0.02 0.03 0.04 0.04 0.04 0.04 0.03 0.03 0.02 0.02 0.01 0.01 0.00 0.00 0.00 0.00 0.00 0.00 0.00 0.01 0.01 0.01 0.00 0.00 0.00 0.00 0.00 0.00 0.00 0.00 0.00 0.01 0.02 0.03 0.04 0.04 0.03 0.02 0.03 0.03 0.04
0.03 0.03 0.03 0.02 0.02 0.03 0.02 0.03 0.03 0.03 0.03 0.02 0.01 0.01 0.00 0.00 0.00 0.00 0.00 0.00 0.01 0.01 0.01 0.01 0.01 0.00 0.00 0.00 0.00 0.00 0.01 0.00 0.00 0.00 0.01 0.03 0.03 0.04 0.02 0.02 0.04 0.04 0.04
0.03 0.03 0.04 0.03 0.03 0.03 0.03 0.02 0.02 0.03 0.03 0.02 0.02 0.01 0.00 0.00 0.00 0.00 0.00 0.00 0.01 0.01 0.01 0.01 0.01 0.01 0.00 0.00 0.00 0.02 0.04 0.02 0.01 0.00 0.01 0.01 0.01 0.01 0.01 0.01 0.03 0.05 0.08
0.03 0.03 0.03 0.03 0.03 0.03 0.03 0.02 0.02 0.02 0.02 0.02 0.02 0.02 0.01 0.00 0.00 0.00 0.00 0.01 0.01 0.01 0.01 0.00 0.01 0.01 0.00 0.00 0.01 0.04 0.05 0.04 0.01 0.00 0.00 0.00 0.00 0.00 0.00 0.01 0.04 0.06 0.07
0.03 0.03 0.03 0.02 0.02 0.02 0.03 0.03 0.03 0.03 0.03 0.02 0.02 0.02 0.01 0.01 0.00 0.00 0.00 0.01 0.02 0.03 0.03 0.02 0.00 0.00 0.00 0.00 0.01 0.02 0.02 0.02 0.02 0.03 0.04 0.03 0.02 0.02 0.01 0.02 0.05 0.06 0.06
0.02 0.02 0.02 0.02 0.02 0.02 0.02 0.03 0.03 0.03 0.03 0.02 0.02 0.02 0.01 0.00 0.00 0.00 0.00 0.00 0.01 0.02 0.03 0.02 0.01 0.00 0.00 0.00 0.00 0.00 0.00 0.00 0.01 0.04 0.05 0.05 0.04 0.04 0.04 0.03 0.05 0.05 0.04
0.03 0.02 0.01 0.01 0.01 0.01 0.02 0.02 0.02 0.03 0.03 0.03 0.03 0.02 0.02 0.01 0.00 0.00 0.00 0.00 0.00 0.02 0.02 0.01 0.01 0.00 0.00 0.00 0.00 0.00 0.00 0.00 0.02 0.04 0.04 0.04 0.03 0.02 0.02 0.02 0.02 0.02 0.04
0.03 0.02 0.02 0.01 0.01 0.01 0.02 0.02 0.02 0.02 0.02 0.02 0.02 0.02 0.02 0.02 0.01 0.00 0.00 0.00 0.00 0.01 0.01 0.00 0.00 0.00 0.00 0.00 0.00 0.00 0.01 0.01 0.02 0.03 0.03 0.03 0.02 0.01 0.02 0.02 0.01 0.02 0.02
0.03 0.03 0.02 0.02 0.02 0.01 0.01 0.01 0.01 0.01 0.01 0.01 0.01 0.01 0.02 0.02 0.01 0.00 0.00 0.01 0.01 0.00 0.01 0.01 0.00 0.00 0.00 0.00 0.00 0.01 0.01 0.01 0.01 0.02 0.02 0.02 0.01 0.01 0.01 0.01 0.02 0.02 0.02
0.03 0.02 0.02 0.02 0.02 0.02 0.01 0.00 0.00 0.00 0.00 0.01 0.01 0.01 0.02 0.01 0.00 0.00 0.00 0.00 0.00 0.00 0.00 0.01 0.02 0.01 0.01 0.01 0.01 0.01 0.00 0.00 0.01 0.01 0.01 0.01 0.01 0.01 0.01 0.01 0.01 0.02 0.03
0.03 0.02 0.01 0.01 0.01 0.01 0.02 0.01 0.00 0.00 0.00 0.00 0.00 0.00 0.00 0.00 0.00 0.00 0.00 0.00 0.00 0.00 0.00 0.01 0.02 0.01 0.01 0.00 0.00 0.00 0.00 0.00 0.00 0.01 0.00 0.00 0.00 0.01 0.01 0.01 0.01 0.01 0.02
0.02 0.01 0.01 0.01 0.01 0.02 0.02 0.02 0.01 0.01 0.00 0.00 0.00 0.00 0.00 0.00 0.00 0.00 0.00 0.00 0.00 0.00 0.00 0.01 0.01 0.00 0.00 0.00 0.00 0.00 0.00 0.00 0.00 0.00 0.00 0.00 0.00 0.00 0.01 0.00 0.00 0.00 0.01
0.00 0.00 0.00 0.00 0.00 0.01 0.00 0.01 0.02 0.02 0.02 0.01 0.00 0.00 0.00 0.00 0.00 0.00 0.00 0.00 0.00 0.00 0.00 0.00 0.00 0.00 0.00 0.00 0.00 0.00 0.00 0.00 0.00 0.00 0.00 0.00 0.00 0.00 0.00 0.00 0.00 0.00 0.00
0.00 0.00 0.00 0.00 0.00 0.00 0.00 0.00 0.01 0.01 0.02 0.01 0.01 0.00 0.00 0.00 0.00 0.00 0.00 0.01 0.01 0.00 0.00 0.00 0.00 0.00 0.00 0.00 0.00 0.00 0.00 0.00 0.00 0.00 0.00 0.00 0.00 0.00 0.00 0.00 0.00 0.00 0.00
0.00 0.00 0.00 0.00 0.00 0.00 0.00 0.00 0.00 0.00 0.01 0.01 0.01 0.01 0.00 0.01 0.01 0.01 0.00 0.00 0.00 0.00 0.00 0.00 0.00 0.00 0.00 0.00 0.00 0.00 0.00 0.00 0.00 0.00 0.00 0.00 0.00 0.00 0.00 0.00 0.00 0.00 0.00
0.00 0.00 0.00 0.00 0.00 0.00 0.00 0.00 0.00 0.00 0.00 0.01 0.01 0.00 0.01 0.02 0.02 0.01 0.00 0.00 0.00 0.00 0.00 0.00 0.00 0.00 0.00 0.00 0.00 0.00 0.00 0.00 0.00 0.00 0.00 0.00 0.00 0.00 0.00 0.00 0.00 0.00 0.00
0.00 0.00 0.00 0.00 0.00 0.00 0.00 0.00 0.00 0.00 0.00 0.00 0.00 0.00 0.00 0.00 0.01 0.00 0.00 0.00 0.00 0.00 0.00 0.00 0.00 0.00 0.00 0.00 0.00 0.00 0.00 0.00 0.00 0.00 0.00 0.00 0.00 0.00 0.00 0.00 0.00 0.00 0.00
0.00 0.00 0.00 0.00 0.00 0.00 0.00 0.00 0.00 0.00 0.00 0.00 0.00 0.00 0.00 0.00 0.00 0.00 0.00 0.00 0.00 0.00 0.00 0.00 0.00 0.00 0.00 0.00 0.00 0.00 0.00 0.00 0.00 0.00 0.00 0.00 0.00 0.00 0.00 0.00 0.00 0.00 0.00
0.00 0.00 0.00 0.00 0.00 0.00 0.00 0.00 0.00 0.00 0.00 0.00 0.00 0.00 0.00 0.00 0.00 0.00 0.00 0.00 0.00 0.00 0.00 0.00 0.00 0.00 0.00 0.00 0.00 0.00 0.00 0.00 0.00 0.00 0.00 0.00 0.00 0.00 0.00 0.00 0.00 0.00 0.00
0.00 0.00 0.00 0.00 0.00 0.00 0.00 0.00 0.00 0.00 0.00 0.00 0.00 0.00 0.00 0.00 0.00 0.00 0.00 0.00 0.00 0.00 0.00 0.00 0.00 0.00 0.00 0.00 0.00 0.00 0.00 0.00 0.00 0.00 0.00 0.00 0.00 0.00 0.00 0.00 0.00 0.00 0.00
0.00 0.00 0.00 0.00 0.00 0.00 0.00 0.00 0.00 0.00 0.00 0.00 0.00 0.00 0.00 0.00 0.00 0.00 0.00 0.00 0.00 0.00 0.00 0.00 0.00 0.00 0.00 0.00 0.00 0.00 0.00 0.00 0.00 0.00 0.00 0.00 0.00 0.00 0.00 0.00 0.00 0.00 0.00
MSLP
1019.42 1019.22 1019.11 1019.11 1019.22 1019.44 1019.73 1020.04 1020.34 1020.58 1020.75 1020.83 1020.83 1020.77 1020.70 1020.63 1020.60 1020.63 1020.73 1020.88 1021.06 1021.25 1021.41 1021.52 1021.58 1021.59 1021.55 1021.51 1021.47 1021.48 1021.53 1021.63 1021.77 1021.93 1022.09 1022.23 1022.34 1022.39 1022.41 1022.40 1022.39 1022.39 1022.42
1020.63 1020.40 1020.22 1020.13 1020.15 1020.27 1020.46 1020.71 1020.95 1021.15 1021.28 1021.33 1021.30 1021.22 1021.11 1021.01 1020.96 1020.97 1021.06 1021.20 1021.39 1021.58 1021.76 1021.88 1021.95 1021.96 1021.93 1021.88 1021.84 1021.82 1021.85 1021.92 1022.02 1022.14 1022.26 1022.34 1022.39 1022.39 1022.34 1022.27 1022.20 1022.15 1022.14
1021.42 1021.18 1020.96 1020.81 1020.75 1020.79 1020.92 1021.11 1021.31 1021.50 1021.62 1021.68 1021.65 1021.57 1021.46 1021.36 1021.29 1021.29 1021.36 1021.50 1021.68 1021.88 1022.07 1022.21 1022.31 1022.35 1022.34 1022.31 1022.28 1022.27 1022.28 1022.33 1022.41 1022.49 1022.55 1022.59 1022.58 1022.52 1022.42 1022.29 1022.16 1022.06 1021.99
1021.80 1021.58 1021.35 1021.16 1021.06 1021.05 1021.14 1021.29 1021.49 1021.68 1021.84 1021.93 1021.94 1021.90 1021.81 1021.72 1021.66 1021.65 1021.71 1021.83 1022.00 1022.20 1022.39 1022.55 1022.67 1022.74 1022.77 1022.78 1022.76 1022.76 1022.78 1022.81 1022.85 1022.90 1022.92 1022.91 1022.85 1022.75 1022.60 1022.42 1022.24 1022.08 1021.96
1021.87 1021.69 1021.48 1021.28 1021.16 1021.12 1021.19 1021.35 1021.56 1021.78 1021.99 1022.14 1022.22 1022.23 1022.20 1022.14 1022.09 1022.08 1022.12 1022.22 1022.37 1022.55 1022.74 1022.91 1023.05 1023.15 1023.21 1023.24 1023.25 1023.25 1023.26 1023.27 1023.29 1023.30 1023.28 1023.23 1023.14 1023.00 1022.82 1022.61 1022.40 1022.19 1022.02
1021.78 1021.65 1021.46 1021.28 1021.16 1021.12 1021.19 1021.36 1021.59 1021.86 1022.13 1022.35 1022.50 1022.59 1022.61 1022.59 1022.56 1022.55 1022.58 1022.65 1022.78 1022.93 1023.11 1023.28 1023.42 1023.54 1023.62 1023.66 1023.68 1023.68 1023.67 1023.66 1023.64 1023.61 1023.56 1023.47 1023.36 1023.20 1023.00 1022.78 1022.55 1022.32 1022.12
1021.67 1021.58 1021.43 1021.27 1021.16 1021.13 1021.20 1021.38 1021.64 1021.95 1022.27 1022.56 1022.78 1022.93 1023.01 1023.04 1023.03 1023.02 1023.04 1023.09 1023.19 1023.32 1023.47 1023.63 1023.77 1023.89 1023.97 1024.00 1024.01 1023.99 1023.96 1023.91 1023.85 1023.78 1023.69 1023.58 1023.44 1023.28 1023.08 1022.86 1022.64 1022.40 1022.18
1021.62 1021.58 1021.46 1021.33 1021.22 1021.20 1021.28 1021.46 1021.73 1022.07 1022.42 1022.75 1023.03 1023.23 1023.36 1023.42 1023.44 1023.44 1023.45 1023.48 1023.56 1023.66 1023.80 1023.94 1024.06 1024.17 1024.23 1024.25 1024.24 1024.18 1024.10 1024.01 1023.90 1023.78 1023.66 1023.52 1023.38 1023.21 1023.03 1022.82 1022.61 1022.38 1022.16
1021.69 1021.67 1021.58 1021.47 1021.37 1021.35 1021.42 1021.60 1021.87 1022.20 1022.57 1022.92 1023.23 1023.46 1023.62 1023.71 1023.75 1023.76 1023.77 1023.80 1023.86 1023.94 1024.06 1024.18 1024.29 1024.37 1024.41 1024.41 1024.36 1024.26 1024.13 1023.98 1023.82 1023.66 1023.50 1023.34 1023.18 1023.01 1022.84 1022.66 1022.46 1022.25 1022.03
1021.83 1021.84 1021.77 1021.67 1021.59 1021.56 1021.62 1021.79 1022.04 1022.37 1022.72 1023.07 1023.39 1023.64 1023.82 1023.92 1023.98 1024.00 1024.01 1024.03 1024.09 1024.16 1024.26 1024.36 1024.45 1024.51 1024.53 1024.49 1024.40 1024.26 1024.09 1023.89 1023.68 1023.47 1023.27 1023.08 1022.91 1022.74 1022.58 1022.41 1022.22 1022.03 1021.82
1022.00 1022.03 1021.99 1021.90 1021.83 1021.81 1021.87 1022.02 1022.26 1022.56 1022.90 1023.23 1023.54 1023.79 1023.97 1024.09 1024.15 1024.18 1024.20 1024.22 1024.26 1024.33 1024.41 1024.49 1024.56 1024.59 1024.58 1024.52 1024.39 1024.22 1024.00 1023.76 1023.51 1023.26 1023.03 1022.82 1022.62 1022.45 1022.28 1022.12 1021.94 1021.75 1021.54
1022.16 1022.20 1022.18 1022.13 1022.08 1022.08 1022.14 1022.29 1022.51 1022.80 1023.12 1023.44 1023.73 1023.97 1024.15 1024.27 1024.34 1024.37 1024.38 1024.40 1024.42 1024.47 1024.53 1024.58 1024.63 1024.64 1024.60 1024.51 1024.36 1024.16 1023.92 1023.65 1023.37 1023.09 1022.83 1022.60 1022.39 1022.20 1022.02 1021.85 1021.67 1021.48 1021.27
1022.26 1022.33 1022.34 1022.33 1022.31 1022.34 1022.43 1022.58 1022.81 1023.09 1023.40 1023.70 1023.99 1024.22 1024.39 1024.51 1024.57 1024.59 1024.59 1024.58 1024.59 1024.60 1024.63 1024.65 1024.66 1024.64 1024.58 1024.47 1024.31 1024.10 1023.85 1023.57 1023.28 1022.99 1022.71 1022.46 1022.23 1022.02 1021.82 1021.63 1021.44 1021.24 1021.02
1022.31 1022.41 1022.46 1022.49 1022.53 1022.60 1022.72 1022.90 1023.14 1023.43 1023.73 1024.04 1024.31 1024.54 1024.70 1024.80 1024.84 1024.85 1024.82 1024.78 1024.75 1024.72 1024.70 1024.67 1024.65 1024.60 1024.52 1024.40 1024.23 1024.02 1023.78 1023.51 1023.23 1022.94 1022.66 1022.40 1022.15 1021.92 1021.70 1021.49 1021.27 1021.05 1020.82
1022.33 1022.46 1022.55 1022.63 1022.71 1022.83 1023.00 1023.22 1023.48 1023.78 1024.09 1024.39 1024.66 1024.88 1025.03 1025.11 1025.14 1025.11 1025.04 1024.96 1024.87 1024.79 1024.71 1024.64 1024.57 1024.49 1024.40 1024.27 1024.12 1023.93 1023.72 1023.47 1023.22 1022.94 1022.67 1022.41 1022.15 1021.90 1021.65 1021.41 1021.17 1020.93 1020.68
1022.34 1022.49 1022.62 1022.74 1022.88 1023.04 1023.24 1023.49 1023.78 1024.09 1024.41 1024.71 1024.97 1025.18 1025.32 1025.38 1025.38 1025.31 1025.21 1025.07 1024.93 1024.79 1024.65 1024.54 1024.43 1024.32 1024.22 1024.11 1023.98 1023.83 1023.65 1023.45 1023.23 1022.99 1022.73 1022.47 1022.20 1021.92 1021.65 1021.38 1021.11 1020.84 1020.58
1022.35 1022.52 1022.67 1022.83 1022.99 1023.18 1023.41 1023.68 1023.98 1024.29 1024.61 1024.91 1025.16 1025.35 1025.48 1025.52 1025.49 1025.40 1025.26 1025.08 1024.89 1024.70 1024.52 1024.36 1024.23 1024.12 1024.02 1023.94 1023.84 1023.74 1023.61 1023.46 1023.28 1023.07 1022.84 1022.57 1022.29 1021.99 1021.69 1021.38 1021.08 1020.78 1020.50
1022.36 1022.54 1022.70 1022.86 1023.04 1023.24 1023.48 1023.74 1024.03 1024.34 1024.64 1024.93 1025.17 1025.35 1025.45 1025.49 1025.44 1025.33 1025.16 1024.96 1024.74 1024.53 1024.33 1024.16 1024.03 1023.93 1023.86 1023.81 1023.76 1023.71 1023.64 1023.54 1023.40 1023.21 1022.99 1022.72 1022.42 1022.09 1021.75 1021.41 1021.07 1020.74 1020.43
1022.34 1022.51 1022.67 1022.83 1023.00 1023.19 1023.41 1023.66 1023.92 1024.21 1024.49 1024.75 1024.97 1025.14 1025.24 1025.27 1025.22 1025.11 1024.95 1024.75 1024.53 1024.32 1024.14 1023.99 1023.88 1023.81 1023.78 1023.78 1023.79 1023.79 1023.77 1023.71 1023.60 1023.43 1023.20 1022.92 1022.59 1022.22 1021.84 1021.45 1021.06 1020.70 1020.35
1022.28 1022.43 1022.57 1022.71 1022.86 1023.03 1023.22 1023.43 1023.66 1023.91 1024.17 1024.40 1024.61 1024.77 1024.87 1024.91 1024.88 1024.79 1024.66 1024.49 1024.31 1024.14 1024.00 1023.90 1023.84 1023.83 1023.85 1023.91 1023.97 1024.02 1024.04 1024.00 1023.91 1023.74 1023.49 1023.18 1022.80 1022.39 1021.95 1021.51 1021.07 1020.66 1020.28
1022.15 1022.28 1022.39 1022.51 1022.63 1022.77 1022.92 1023.10 1023.30 1023.52 1023.74 1023.96 1024.15 1024.31 1024.42 1024.49 1024.49 1024.45 1024.37 1024.26 1024.14 1024.04 1023.97 1023.94 1023.95 1024.00 1024.09 1024.20 1024.31 1024.39 1024.43 1024.41 1024.30 1024.11 1023.83 1023.47 1023.05 1022.57 1022.08 1021.58 1021.10 1020.64 1020.23
1021.96 1022.06 1022.15 1022.25 1022.34 1022.45 1022.58 1022.73 1022.90 1023.10 1023.30 1023.50 1023.69 1023.85 1023.99 1024.08 1024.14 1024.15 1024.14 1024.10 1024.07 1024.06 1024.06 1024.11 1024.20 1024.32 1024.47 1024.63 1024.77 1024.87 1024.92 1024.88 1024.75 1024.53 1024.20 1023.78 1023.30 1022.77 1022.21 1021.66 1021.13 1020.64 1020.20
1021.72 1021.80 1021.87 1021.95 1022.04 1022.14 1022.25 1022.38 1022.54 1022.72 1022.90 1023.10 1023.30 1023.48 1023.63 1023.77 1023.87 1023.95 1024.00 1024.05 1024.10 1024.17 1024.26 1024.39 1024.54 1024.73 1024.92 1025.11 1025.27 1025.38 1025.41 1025.35 1025.18 1024.91 1024.53 1024.06 1023.52 1022.94 1022.34 1021.75 1021.19 1020.67 1020.21
1021.46 1021.52 1021.59 1021.67 1021.75 1021.85 1021.96 1022.10 1022.25 1022.42 1022.62 1022.81 1023.02 1023.21 1023.39 1023.56 1023.71 1023.84 1023.96 1024.08 1024.20 1024.34 1024.50 1024.69 1024.90 1025.13 1025.35 1025.56 1025.72 1025.82 1025.83 1025.74 1025.53 1025.21 1024.78 1024.27 1023.69 1023.07 1022.44 1021.83 1021.25 1020.73 1020.27
1021.21 1021.26 1021.34 1021.42 1021.51 1021.62 1021.75 1021.89 1022.05 1022.23 1022.43 1022.63 1022.84 1023.05 1023.25 1023.44 1023.62 1023.79 1023.95 1024.12 1024.30 1024.49 1024.70 1024.93 1025.18 1025.43 1025.67 1025.88 1026.04 1026.12 1026.10 1025.98 1025.74 1025.39 1024.93 1024.39 1023.79 1023.16 1022.52 1021.90 1021.34 1020.82 1020.38
1020.98 1021.04 1021.11 1021.21 1021.32 1021.44 1021.59 1021.74 1021.92 1022.11 1022.31 1022.52 1022.73 1022.95 1023.16 1023.36 1023.55 1023.74 1023.93 1024.12 1024.33 1024.55 1024.79 1025.05 1025.31 1025.58 1025.82 1026.03 1026.18 1026.24 1026.21 1026.07 1025.81 1025.44 1024.98 1024.43 1023.83 1023.21 1022.59 1021.99 1021.45 1020.96 1020.54
Thickness
5599 5599 5599 5598 5597 5597 5596 5595 5595 5595 5595 5595 5594 5595 5595 5595 5595 5595 5594 5594 5592 5590 5588 5587 5585 5584 5584 5584 5583 5581 5578 5575 5570 5568 5567 5563 5559 5556 5554 5551 5550 5548 5544
5586 5586 5586 5585 5585 5585 5583 5584 5584 5584 5584 5584 5584 5584 5585 5584 5584 5584 5583 5582 5580 5578 5576 5575 5573 5573 5571 5569 5569 5568 5565 5563 5559 5556 5554 5553 5550 5548 5545 5542 5541 5538 5535
5576 5575 5574 5573 5573 5573 5573 5573 5573 5573 5573 5574 5574 5573 5573 5574 5574 5573 5572 5571 5569 5567 5565 5563 5561 5559 5557 5556 5556 5554 5553 5552 5549 5546 5544 5543 5541 5539 5536 5534 5532 5528 5527
5566 5565 5564 5563 5562 5563 5563 5562 5563 5563 5563 5563 5564 5563 5562 5561 5561 5561 5561 5559 5558 5556 5553 5551 5549 5547 5544 5543 5544 5541 5540 5539 5538 5537 5535 5533 5531 5528 5526 5524 5521 5519 5518
5558 5556 5554 5553 5553 5553 5553 5553 5553 5553 5552 5552 5552 5552 5550 5548 5546 5546 5548 5548 5547 5545 5543 5541 5539 5536 5533 5532 5531 5528 5528 5526 5526 5525 5524 5522 5519 5517 5515 5514 5511 5510 5509
5550 5548 5547 5546 5545 5544 5544 5543 5542 5542 5542 5542 5541 5540 5539 5536 5534 5535 5535 5536 5536 5534 5533 5531 5529 5527 5524 5523 5521 5520 5518 5517 5515 5514 5514 5511 5510 5508 5507 5505 5503 5501 5500
5542 5541 5540 5539 5538 5538 5536 5534 5533 5532 5532 5531 5530 5529 5527 5524 5524 5524 5524 5524 5526 5524 5523 5522 5522 5519 5516 5514 5514 5513 5512 5510 5507 5505 5504 5504 5503 5501 5499 5498 5496 5494 5493
5535 5534 5533 5532 5531 5529 5527 5526 5525 5524 5523 5522 5522 5520 5518 5515 5515 5515 5515 5517 5518 5517 5515 5513 5511 5508 5505 5504 5505 5506 5507 5506 5503 5500 5500 5499 5498 5496 5494 5493 5492 5492 5492
5530 5529 5527 5526 5524 5522 5520 5519 5518 5517 5517 5515 5515 5513 5511 5507 5506 5506 5507 5510 5511 5510 5507 5504 5502 5499 5496 5496 5498 5498 5499 5498 5498 5496 5496 5495 5495 5493 5491 5488 5488 5487 5487
5523 5522 5520 5519 5518 5516 5514 5513 5512 5512 5511 5510 5508 5506 5504 5501 5499 5500 5500 5504 5503 5502 5499 5496 5493 5491 5490 5489 5489 5490 5490 5489 5490 5492 5493 5493 5493 5492 5490 5486 5485 5484 5483
5518 5516 5515 5513 5512 5510 5509 5508 5507 5506 5506 5504 5502 5500 5498 5495 5493 5493 5493 5494 5494 5494 5493 5490 5486 5485 5484 5483 5483 5483 5482 5482 5484 5487 5489 5490 5491 5490 5489 5487 5485 5484 5481
5513 5511 5510 5508 5508 5506 5504 5503 5502 5501 5500 5499 5497 5495 5492 5490 5488 5487 5487 5486 5485 5486 5485 5484 5482 5480 5479 5479 5479 5480 5480 5480 5482 5484 5485 5486 5486 5486 5486 5486 5486 5485 5484
5507 5505 5504 5503 5502 5501 5500 5499 5498 5497 5497 5496 5493 5491 5488 5486 5484 5482 5482 5481 5480 5479 5479 5478 5477 5477 5476 5477 5477 5476 5476 5477 5479 5479 5480 5481 5483 5484 5485 5485 5485 5485 5485
5502 5500 5499 5498 5497 5496 5496 5495 5494 5493 5492 5492 5490 5487 5485 5482 5479 5477 5478 5478 5476 5475 5474 5475 5475 5475 5474 5474 5474 5475 5475 5475 5475 5475 5477 5479 5481 5482 5482 5483 5482 5482 5482
5499 5498 5497 5495 5494 5492 5490 5486 5486 5482 5482 5483 5483 5482 5480 5476 5471 5469 5469 5471 5469 5468 5468 5472 5474 5474 5474 5474 5474 5474 5474 5473 5473 5473 5474 5475 5477 5478 5479 5480 5481 5481 5480
5497 5497 5496 5494 5492 5490 5487 5483 5478 5478 5476 5476 5475 5474 5472 5470 5469 5468 5467 5467 5466 5465 5466 5469 5471 5471 5470 5470 5470 5470 5470 5469 5469 5470 5471 5472 5473 5474 5476 5478 5479 5479 5479
5498 5497 5496 5495 5493 5491 5488 5485 5481 5476 5474 5473 5472 5471 5470 5469 5468 5467 5466 5465 5466 5464 5465 5468 5468 5467 5466 5466 5466 5466 5466 5466 5466 5467 5468 5469 5471 5472 5474 5476 5477 5478 5479
5500 5497 5497 5496 5495 5493 5491 5489 5486 5483 5479 5476 5472 5471 5470 5469 5468 5467 5465 5464 5468 5469 5468 5468 5466 5465 5464 5463 5463 5463 5463 5464 5464 5465 5466 5467 5469 5471 5472 5474 5476 5478 5479
5502 5500 5499 5498 5497 5496 5495 5493 5490 5488 5486 5483 5479 5474 5471 5470 5468 5468 5466 5466 5471 5470 5468 5467 5465 5464 5462 5462 5462 5462 5462 5462 5463 5464 5465 5466 5468 5469 5472 5474 5477 5479 5480
5503 5500 5499 5500 5500 5499 5497 5496 5494 5491 5489 5487 5484 5481 5478 5476 5475 5475 5472 5472 5472 5470 5467 5465 5464 5463 5462 5461 5461 5461 5461 5462 5462 5463 5464 5465 5467 5469 5471 5474 5477 5479 5482
5508 5505 5501 5502 5504 5502 5501 5499 5497 5495 5493 5491 5488 5484 5480 5481 5482 5480 5478 5475 5473 5470 5467 5465 5465 5464 5462 5461 5460 5460 5460 5460 5460 5460 5461 5463 5466 5469 5472 5475 5478 5481 5483
5514 5512 5510 5509 5507 5505 5504 5503 5501 5499 5498 5496 5492 5488 5485 5484 5486 5483 5481 5478 5475 5472 5469 5466 5465 5464 5461 5460 5459 5460 5459 5458 5457 5457 5458 5462 5465 5469 5473 5476 5479 5481 5483
5520 5519 5516 5514 5511 5506 5506 5507 5506 5504 5503 5501 5499 5497 5493 5491 5490 5486 5484 5481 5478 5475 5472 5470 5467 5465 5462 5461 5460 5459 5457 5455 5455 5456 5457 5461 5465 5469 5473 5477 5479 5481 5483
5526 5525 5523 5520 5517 5515 5514 5512 5510 5509 5507 5505 5503 5501 5499 5495 5493 5490 5488 5485 5482 5479 5476 5473 5470 5468 5466 5464 5462 5460 5457 5456 5456 5457 5458 5461 5464 5470 5475 5477 5480 5483 5484
5533 5531 5529 5527 5525 5522 5520 5518 5516 5514 5512 5510 5508 5505 5504 5501 5499 5496 5492 5490 5486 5484 5480 5477 5474 5472 5469 5467 5464 5462 5461 5460 5460 5460 5461 5463 5467 5471 5475 5478 5480 5483 5484
5539 5537 5536 5534 5531 5528 5525 5523 5521 5519 5517 5515 5513 5510 5508 5506 5503 5500 5497 5494 5491 5489 5485 5482 5479 5476 5473 5471 5467 5466 5465 5464 5464 5464 5465 5466 5469 5473 5475 5477 5480 5482 5483